Location: Bluff Heights
(33.7692°N, 118.1592°W)
Time: 10:44:29
(UTC+00:00)

Explorer 11/Cluster Stage 4 - Visible Passes

Search period start: 03 August 2021 00:00
Search period end: 13 August 2021 00:00
Orbit: 467 x 1257 km, 28.8° (Epoch: 02 August)

Date Brightness Start Highest point End Pass type
(mag) Time Alt. Az. Time Alt. Az. Time Alt. Az.
05 Aug 9.4 12:19:38 10° SSE 12:20:11 10° SE 12:20:45 10° SE visible
06 Aug 9.0 12:06:56 10° SSE 12:08:52 11° SE 12:10:54 10° SE visible
07 Aug 8.8 11:55:03 10° S 11:57:33 13° SE 12:00:16 10° ESE visible
08 Aug 8.7 11:43:26 10° S 11:46:16 14° SSE 11:49:25 10° ESE visible
09 Aug 8.4 11:32:54 13° S 11:35:01 16° SSE 11:38:26 10° ESE visible
10 Aug 8.2 11:22:34 16° SSE 11:23:47 17° SSE 11:27:23 10° ESE visible
11 Aug 8.1 11:12:13 18° SSE 11:12:34 19° SSE 11:16:19 10° ESE visible
12 Aug 8.0 11:01:52 20° SE 11:01:52 20° SE 11:05:12 10° ESE visible
12 Aug 7.2 12:44:27 10° WSW 12:49:15 46° SSE 12:55:16 10° E visible
